Satellite: FAST1-2
Catalog number: 37227
Epoch time:      11048.41045685
Element set:    0081
Inclination:      071.9740 deg
RA of node:       303.3320 deg
Eccentricity:    0.0016667
Arg of perigee:   148.9109 deg
Mean anomaly:     211.3043 deg
Mean motion:   14.76393123 rev/day
Decay rate:       3.21e-06 rev/day^2
Epoch rev:           01318
Checksum:              262

/EX
SB KEPS @ AMSAT  $ORB11048.W
Orbital Elements  11048.WEATHER

HR AMSAT ORBITAL ELEMENTS FOR WEATHER SATELLITES
FROM WA5QGD FORT WORTH,TX February 17, 2011
Send Subscribe/unsubscribe to KEPS at http://www.amsat.org/mailman/listinfo/kep
BID: ORB11048.W
TO ALL RADIO AMATEURS BT

Satellite: NOAA-10
Catalog number: 16969
Epoch time:      11047.64704614
Element set:    0398
Inclination:      098.6332 deg
RA of node:       079.0010 deg
Eccentricity:    0.0011726
Arg of perigee:   215.1868 deg
Mean anomaly:     144.8530 deg
Mean motion:   14.27443519 rev/day
Decay rate:       -5.3e-07 rev/day^2
Epoch rev:           27045
Checksum:              296

Satellite: NOAA-11
Catalog number: 19531
Epoch time:      11047.77212262
Element set:    0405
Inclination:      098.7551 deg
RA of node:       137.5084 deg
Eccentricity:    0.0011162
Arg of perigee:   168.2085 deg
Mean anomaly:     191.9355 deg
Mean motion:   14.14903748 rev/day
Decay rate:       -4.3e-07 rev/day^2
Epoch rev:           15572
Checksum:              289

Satellite: NOAA-12
Catalog number: 21263
Epoch time:      11047.72685205
Element set:    0898
Inclination:      098.7577 deg
RA of node:       065.7491 deg
Eccentricity:    0.0012630
Arg of perigee:   172.9500 deg
Mean anomaly:     187.1853 deg
Mean motion:   14.25683757 rev/day
Decay rate:        9.3e-07 rev/day^2
Epoch rev:           02724
Checksum:              320

Satellite: MET-3/5
Catalog number: 21655
Epoch time:      11048.63532369
Element set:      40
Inclination:      082.5601 deg
RA of node:       135.2456 deg
Eccentricity:    0.0014859
Arg of perigee:   095.9594 deg
Mean anomaly:     264.3158 deg
Mean motion:   13.17027271 rev/day
Decay rate:        5.1e-07 rev/day^2
Epoch rev:           93798
Checksum:              311

Satellite: MET-2/21
Catalog number: 22782
Epoch time:      11047.56610835
Element set:    0021
Inclination:      082.5450 deg
RA of node:       058.5784 deg
Eccentricity:    0.0024029
Arg of perigee:   077.9429 deg
Mean anomaly:     282.4420 deg
Mean motion:   13.83652329 rev/day
Decay rate:        4.8e-07 rev/day^2
Epoch rev:           88187
Checksum:              311

Satellite: OKEAN-4
Catalog number: 23317
Epoch time:      11047.72713108
Element set:    0476
Inclination:      082.5421 deg
RA of node:       125.6139 deg
Eccentricity:    0.0022919
Arg of perigee:   152.0075 deg
Mean anomaly:     208.2406 deg
Mean motion:   14.82941217 rev/day
Decay rate:       5.17e-06 rev/day^2
Epoch rev:           88269
Checksum:              288

Satellite: NOAA-14
Catalog number: 23455
Epoch time:      11047.72644075
Element set:    0383
Inclination:      098.8566 deg
RA of node:       131.5392 deg
Eccentricity:    0.0008625
Arg of perigee:   260.9115 deg
Mean anomaly:     099.1069 deg
Mean motion:   14.13805660 rev/day
Decay rate:       -1.4e-07 rev/day^2
Epoch rev:           83205
Checksum:              300

Satellite: NOAA-15
Catalog number: 25338
Epoch time:      11047.87818910
Element set:    0711
Inclination:      098.6440 deg
RA of node:       035.7341 deg
Eccentricity:    0.0011553
Arg of perigee:   082.6402 deg
Mean anomaly:     277.6052 deg
Mean motion:   14.24882817 rev/day
Decay rate:      -1.01e-06 rev/day^2
Epoch rev:           66359
Checksum:              298

Satellite: RESURS
Catalog number: 25394
Epoch time:      11048.67625942
Element set:     726
Inclination:      098.2982 deg
RA of node:       058.2845 deg
Eccentricity:    0.0000790
Arg of perigee:   183.6317 deg
Mean anomaly:     176.4851 deg
Mean motion:   14.24222975 rev/day
Decay rate:      -1.79e-06 rev/day^2
Epoch rev:           65529
Checksum:              332

Satellite: FENGYUN1
Catalog number: 25730
Epoch time:      11047.84099155
Element set:     259
Inclination:      098.8061 deg
RA of node:       011.7389 deg
Eccentricity:    0.0022233
Arg of perigee:   291.9453 deg
Mean anomaly:     067.9371 deg
Mean motion:   14.08496035 rev/day
Decay rate:       2.56e-06 rev/day^2
Epoch rev:           60612
Checksum:              304

Satellite: OKEAN-0
Catalog number: 25860
Epoch time:      11047.51221489
Element set:    0233
Inclination:      097.8679 deg
RA of node:       017.3908 deg
Eccentricity:    0.0001730
Arg of perigee:   054.7332 deg
Mean anomaly:     305.4028 deg
Mean motion:   14.73710615 rev/day
Decay rate:       1.62e-06 rev/day^2
Epoch rev:           62288
Checksum:              285

Satellite: NOAA-16
Catalog number: 26536
Epoch time:      11047.87835017
Element set:    0192
Inclination:      099.1536 deg
RA of node:       075.9085 deg
Eccentricity:    0.0010765
Arg of perigee:   014.9083 deg
Mean anomaly:     345.2396 deg
Mean motion:   14.12596570 rev/day
Decay rate:      -1.54e-06 rev/day^2
Epoch rev:           53637
Checksum:              321

